Weather in Ustinovka

Russia / Saratov Oblast     51°27′07″N   43°21′59″E
temp.,
°C
wind,
m/s
gust,
m/s
humid.,
%
clouds,
%
prec.,
mm/h
press.,
hPa
HPBL,
m
21 april, wed
wed2101:00+11se142289100 2.8 1006942
04:00+10sse10168922 5.2 1008599
07:00+11s10158298 0.3 1008963
10:00+10s8138395 0.8 10101030
13:00+11s10138083 0.4 10111134
16:00+10wsw9127693 0.9 10141068
19:00+10sw387699 0.0 1016983
22:00+8sse3787100 0.1 1018131
22 april, thu
thu2201:00+7s49915 0.1 1018163
04:00+8s358414 0.1 1019108
07:00+7ssw34825 0.0 102087
10:00+12sw34625 0.0 1022574
13:00+15sw45505 0.4 10211629
16:00+16wsw4546100 0.6 10212198
19:00+13wsw1165100 0.1 102216
22:00+12s226499 0.1 102213
23 april, fri
fri2301:00+10sse11705 0.0 102210
04:00+9se117173 0.0 102210
07:00+10ese2376100 0.0 102248
10:00+14se346176 0.1 1022369
13:00+16se3344100 0.5 10202087
16:00+14s2360100 1.0 1020306
19:00+12e357695 0.6 1019200
22:00+11se378180 1.3 1018273
24 april, sat
sat2401:00+9sse488662 0.0 1017163
04:00+8sse488896 0.1 1015161
07:00+8sse478999 0.0 1014197
10:00+14s6866100 0.3 1012540
13:00+16ssw8104699 0.8 10111872
16:00+10w81185100 1.9 1011867
19:00+9w6107095 0.9 10131341
22:00+6wsw510783 1.0 1014333
25 april, sun
sun2501:00+5ssw368315 0.0 1014138
04:00+5sw4781100 0.1 1014423
07:00+4sw1496100 2.9 1014708
10:00+4wsw3594100 4.3 1014780
13:00+6wsw687751 0.3 1015933
16:00+9w676069 0.7 10151546
19:00+8wsw586996 0.6 1016657
22:00+5sw3578100 0.9 101789